User: anonymous   Login
Location: Izdebno
(52.6670°N, 16.2170°E)
Time: 10:56:56
(UTC+02:00)
Language:

Tiros 1 despin weight - Orbit

View from above orbital plane
View from above orbital plane
View from above satellite
View from above satellite

Ground track
Ground track

The orbit data is extracted from the following two-line orbital elements,

1 00115U 60002D   24149.10840303  .00002602  00000-0  29221-3 0  9993
2 00115  48.1610 169.9673 0030285 134.0436 226.2981 14.89495098405948
Epoch (UTC): 28 May 2024 02:36:06
Eccentricity: 0.0030285
inclination: 48.1610°
perigee height: 578 km
apogee height: 620 km
right ascension of ascending node: 169.9673°
argument of perigee: 134.0436°
revolutions per day: 14.89495098
mean anomaly at epoch: 226.2981°
orbit number at epoch: 40594

The dashed part of the orbit path shows where the satellite is in the earth's shadow,  

DLR